When you browse on this site, cookies collect data to enhance your experience and personalize the content and advertising you see.
Visit our Privacy Policy to learn more. By continuing to use the site, you agree to this use of cookies and data.
  • In Czech Republic
  • List of Countries
  • For 7 days
  • Water Temperature
  • Weather Map
  • Weather Widgets
  • user-avatar
    Login

    Hourly Weather Schwerin

    Today, 14 December, Saturday

    Time Temperature Precipitation Wind Pressure Humidity
    00:00 0°C° 0 mm 3 mps 733 mmHg 95%
    01:00 0°C° 0 mm 3 mps 733 mmHg 95%
    02:00 0°C° 0.4 mm 3 mps 732 mmHg 96%
    03:00 +1°C° 0.4 mm 3 mps 732 mmHg 96%
    04:00 +1°C° 0.4 mm 3 mps 732 mmHg 97%
    05:00 +1°C° 0.3 mm 4 mps 732 mmHg 96%
    06:00 +1°C° 0.3 mm 4 mps 732 mmHg 94%
    07:00 +1°C° 0 mm 4 mps 732 mmHg 92%
    08:00 +3°C° 0 mm 4 mps 732 mmHg 91%
    09:00 +3°C° 0 mm 4 mps 732 mmHg 90%
    10:00 +2°C° 0 mm 5 mps 732 mmHg 89%
    11:00 +2°C° 0.4 mm 5 mps 733 mmHg 91%
    12:00 +2°C° 0.4 mm 6 mps 733 mmHg 92%
    13:00 +2°C° 0.4 mm 6 mps 734 mmHg 94%
    14:00 +2°C° 0.1 mm 6 mps 734 mmHg 90%
    15:00 +2°C° 0.1 mm 6 mps 735 mmHg 85%
    16:00 +3°C° 0.1 mm 6 mps 736 mmHg 80%
    17:00 +2°C° 0 mm 6 mps 736 mmHg 80%
    18:00 +2°C° 0 mm 7 mps 737 mmHg 79%
    19:00 +2°C° 0 mm 7 mps 737 mmHg 78%
    20:00 +2°C° 0 mm 7 mps 738 mmHg 81%
    21:00 +2°C° 0 mm 7 mps 739 mmHg 84%
    22:00 +2°C° 0 mm 7 mps 740 mmHg 86%
    23:00 +2°C° 0 mm 7 mps 740 mmHg 84%

    Tomorrow, 15 December, Sunday

    Time Temperature Precipitation Wind Pressure Humidity
    00:00 +2°C° 0 mm 7 mps 741 mmHg 82%
    01:00 +1°C° 0 mm 8 mps 742 mmHg 79%
    02:00 +2°C° 0 mm 7 mps 742 mmHg 80%
    03:00 +1°C° 0 mm 6 mps 743 mmHg 80%
    04:00 0°C° 0 mm 5 mps 743 mmHg 80%
    05:00 0°C° 0 mm 5 mps 742 mmHg 80%
    06:00 -1°C° 0 mm 6 mps 742 mmHg 81%
    07:00 -2°C° 0 mm 6 mps 741 mmHg 82%
    08:00 -1°C° 0.8 mm 6 mps 741 mmHg 85%
    09:00 0°C° 0.8 mm 7 mps 740 mmHg 88%
    10:00 +1°C° 0.8 mm 8 mps 740 mmHg 91%
    11:00 +2°C° 0.2 mm 8 mps 740 mmHg 82%
    12:00 +4°C° 0.2 mm 8 mps 741 mmHg 73%
    13:00 +5°C° 0.2 mm 8 mps 741 mmHg 64%
    14:00 +5°C° 0 mm 8 mps 742 mmHg 65%
    15:00 +4°C° 0 mm 8 mps 743 mmHg 66%
    16:00 +2°C° 0 mm 8 mps 744 mmHg 67%
    17:00 +3°C° 0 mm 7 mps 745 mmHg 69%
    18:00 +3°C° 0 mm 7 mps 746 mmHg 71%
    19:00 +3°C° 0 mm 7 mps 747 mmHg 73%
    20:00 +3°C° 0 mm 7 mps 747 mmHg 76%
    21:00 +3°C° 0 mm 6 mps 748 mmHg 78%
    22:00 +3°C° 0 mm 6 mps 749 mmHg 80%
    23:00 +2°C° 0 mm 6 mps 749 mmHg 82%

    Day after tomorrow, 16 December, Monday

    Time Temperature Precipitation Wind Pressure Humidity
    00:00 +2°C° 0 mm 5 mps 750 mmHg 83%
    01:00 +2°C° 0 mm 5 mps 750 mmHg 85%
    02:00 +2°C° 0 mm 5 mps 750 mmHg 86%
    03:00 +1°C° 0 mm 4 mps 750 mmHg 87%
    04:00 +1°C° 0 mm 4 mps 750 mmHg 88%
    05:00 +1°C° 0 mm 4 mps 751 mmHg 88%
    06:00 +1°C° 0 mm 4 mps 751 mmHg 88%
    07:00 +3°C° 0 mm 4 mps 751 mmHg 88%
    08:00 +3°C° 0 mm 4 mps 751 mmHg 88%
    09:00 +3°C° 0 mm 4 mps 751 mmHg 88%
    10:00 +3°C° 0 mm 4 mps 751 mmHg 89%
    11:00 +4°C° 0 mm 4 mps 751 mmHg 87%
    12:00 +5°C° 0 mm 4 mps 751 mmHg 86%
    13:00 +5°C° 0 mm 4 mps 751 mmHg 84%
    14:00 +5°C° 0 mm 3 mps 751 mmHg 87%
    15:00 +4°C° 0 mm 3 mps 751 mmHg 91%
    16:00 +4°C° 0 mm 3 mps 751 mmHg 94%
    17:00 +4°C° 0 mm 3 mps 750 mmHg 94%
    18:00 +5°C° 0 mm 3 mps 750 mmHg 94%
    19:00 +5°C° 0 mm 3 mps 750 mmHg 94%
    20:00 +5°C° 0.3 mm 3 mps 750 mmHg 94%
    21:00 +5°C° 0.3 mm 3 mps 750 mmHg 95%
    22:00 +6°C° 0.3 mm 4 mps 749 mmHg 95%
    23:00 +6°C° 0.1 mm 4 mps 749 mmHg 93%

    17 December, Tuesday

    Time Temperature Precipitation Wind Pressure Humidity
    00:00 +6°C° 0.1 mm 4 mps 749 mmHg 91%
    01:00 +6°C° 0.1 mm 4 mps 748 mmHg 89%
    02:00 +5°C° 0 mm 4 mps 748 mmHg 88%
    03:00 +5°C° 0 mm 4 mps 748 mmHg 88%
    04:00 +5°C° 0 mm 4 mps 748 mmHg 88%
    05:00 +5°C° 0 mm 4 mps 748 mmHg 86%
    06:00 +5°C° 0 mm 3 mps 748 mmHg 84%
    07:00 +5°C° 0 mm 3 mps 748 mmHg 82%
    08:00 +5°C° 0 mm 4 mps 748 mmHg 81%
    09:00 +6°C° 0 mm 4 mps 748 mmHg 79%
    10:00 +6°C° 0 mm 4 mps 748 mmHg 78%
    11:00 +7°C° 0 mm 4 mps 748 mmHg 76%
    12:00 +8°C° 0 mm 4 mps 749 mmHg 74%
    13:00 +10°C° 0 mm 4 mps 749 mmHg 72%
    14:00 +8°C° 0 mm 4 mps 749 mmHg 75%
    15:00 +8°C° 0 mm 3 mps 749 mmHg 78%
    16:00 +8°C° 0 mm 3 mps 749 mmHg 82%
    17:00 +8°C° 0 mm 3 mps 749 mmHg 84%
    18:00 +7°C° 0 mm 3 mps 750 mmHg 86%
    19:00 +7°C° 0 mm 3 mps 750 mmHg 87%
    20:00 +7°C° 0 mm 3 mps 750 mmHg 88%
    21:00 +7°C° 0 mm 3 mps 750 mmHg 88%
    22:00 +7°C° 0 mm 3 mps 750 mmHg 88%
    23:00 +7°C° 0 mm 4 mps 750 mmHg 87%

    18 December, Wednesday

    Time Temperature Precipitation Wind Pressure Humidity
    00:00 +7°C° 0 mm 4 mps 750 mmHg 85%
    01:00 +7°C° 0 mm 4 mps 750 mmHg 83%
    02:00 +7°C° 0 mm 4 mps 750 mmHg 83%
    03:00 +7°C° 0 mm 4 mps 750 mmHg 82%
    04:00 +7°C° 0 mm 4 mps 751 mmHg 82%
    05:00 +7°C° 0.4 mm 4 mps 751 mmHg 86%
    06:00 +7°C° 0.4 mm 5 mps 751 mmHg 89%
    07:00 +7°C° 0.4 mm 5 mps 752 mmHg 93%
    08:00 +6°C° 0.1 mm 4 mps 753 mmHg 92%
    09:00 +6°C° 0.1 mm 4 mps 754 mmHg 91%
    10:00 +5°C° 0.1 mm 3 mps 755 mmHg 90%
    11:00 +5°C° 0 mm 3 mps 755 mmHg 86%
    12:00 +5°C° 0 mm 3 mps 756 mmHg 82%
    13:00 +6°C° 0 mm 2 mps 756 mmHg 79%
    14:00 +6°C° 0 mm 2 mps 757 mmHg 82%
    15:00 +5°C° 0 mm 2 mps 757 mmHg 85%
    16:00 +5°C° 0 mm 1 mps 758 mmHg 88%
    17:00 +5°C° 0 mm 1 mps 758 mmHg 89%
    18:00 +4°C° 0 mm 1 mps 758 mmHg 90%
    19:00 +4°C° 0 mm 1 mps 759 mmHg 91%
    20:00 +4°C° 0 mm 1 mps 759 mmHg 91%
    21:00 +4°C° 0 mm 1 mps 759 mmHg 91%
    22:00 +3°C° 0 mm 1 mps 759 mmHg 91%
    23:00 +3°C° 0 mm 1 mps 759 mmHg 91%

    19 December, Thursday

    Time Temperature Precipitation Wind Pressure Humidity
    00:00 +3°C° 0 mm 1 mps 759 mmHg 91%
    01:00 +2°C° 0 mm 2 mps 759 mmHg 91%
    02:00 +2°C° 0 mm 2 mps 759 mmHg 91%
    03:00 +2°C° 0 mm 2 mps 759 mmHg 91%
    04:00 0°C° 0 mm 3 mps 758 mmHg 91%
    05:00 0°C° 0 mm 3 mps 758 mmHg 91%
    06:00 0°C° 0 mm 3 mps 758 mmHg 91%
    07:00 0°C° 0 mm 3 mps 758 mmHg 90%
    08:00 0°C° 0 mm 4 mps 758 mmHg 89%
    09:00 0°C° 0 mm 4 mps 758 mmHg 87%
    10:00 0°C° 0 mm 4 mps 758 mmHg 85%
    11:00 +1°C° 0 mm 5 mps 758 mmHg 82%
    12:00 +2°C° 0 mm 5 mps 757 mmHg 79%
    13:00 +2°C° 0 mm 5 mps 757 mmHg 76%
    14:00 +2°C° 0 mm 5 mps 756 mmHg 79%
    15:00 +1°C° 0 mm 5 mps 756 mmHg 81%
    16:00 +1°C° 0 mm 5 mps 756 mmHg 83%
    17:00 +1°C° 0 mm 5 mps 755 mmHg 85%
    18:00 +1°C° 0 mm 5 mps 755 mmHg 86%
    19:00 +1°C° 0 mm 5 mps 755 mmHg 88%
    20:00 +1°C° 0 mm 5 mps 754 mmHg 88%
    21:00 +1°C° 0 mm 5 mps 754 mmHg 88%
    22:00 +1°C° 0 mm 4 mps 754 mmHg 88%
    23:00 +1°C° 0.3 mm 5 mps 753 mmHg 89%
    Show more